Flag for United Kingdom Weather past 2 weeks in Belfast, Northern Ireland, United Kingdom

Now
61 °F

Sprinkles. Broken clouds.


Feels Like: 61 °F
Forecast: 52 / 67 °F
Wind: 8 mph from West

Location: Belfast / Harbour

Current Time: Aug 30, 2014 at 4:02:50 PM

Latest Report: Aug 30, 2014 at 3:20 PM


Visibility: N/A

Pressure: 29.92 "Hg

Humidity: 88%

Dew point: 57 °F

Location of BelfastLocation

Historic Weather in Belfast — Graph

°F

Belfast temperature yesterday

Maximum temperature yesterday: 66 °F (at 1:50 PM)
Minimum temperature yesterday: 57 °F (at 6:20 AM)
Average temperature yesterday: 63 °F

Past Weeks' High & Low Weather Summary

 TemperatureHumidityPressure
High66 °F (Aug 28, 12:50 PM)94% (Aug 16, 9:20 PM)30.15 "Hg (Aug 16, 9:20 PM)
Low43 °F (Aug 24, 6:20 AM)48% (Aug 23, 6:20 PM)29.50 "Hg (Aug 29, 6:20 AM)
Average58 °F72%29.86 "Hg
* Reported Aug 15 2:50 PM — Aug 30 2:50 PM, Belfast, Weather by CustomWeather, © 2014

Note: Actual official high and low records may vary slightly from our data, if they occured in-between our weather recording intervals... More about our weather records

Advertising

Belfast weather history for previous 24 hours

 ConditionsComfort  
Time TempWeatherWind HumidityBarometerVisibility
2:50 PM
Aug 30
61 °FSprinkles. Broken clouds.7 mph88%29.92 "HgN/A
2:20 PM63 °FSprinkles. Scattered clouds.12 mph77%29.92 "HgN/A
1:50 PM63 °FScattered clouds.7 mph83%29.92 "HgN/A
1:20 PM59 °FSprinkles. Scattered clouds.9 mph94%29.92 "HgN/A
12:50 PM61 °FSprinkles. Scattered clouds.9 mph83%29.92 "HgN/A
12:20 PM61 °FScattered showers. Scattered clouds.9 mph77%29.92 "HgN/A
11:50 AM63 °FScattered clouds.10 mph68%29.92 "HgN/A
11:20 AM61 °FScattered clouds.10 mph72%29.89 "HgN/A
10:50 AM61 °FPassing clouds.13 mph72%29.89 "HgN/A
10:20 AM63 °FPassing clouds.12 mph68%29.89 "HgN/A
9:50 AM61 °FPassing clouds.10 mph72%29.89 "HgN/A
9:20 AM59 °FPassing clouds.7 mph77%29.86 "HgN/A
8:50 AM59 °FPassing clouds.6 mph77%29.86 "HgN/A
8:20 AM57 °FPassing clouds.9 mph82%29.86 "HgN/A
7:50 AM57 °FPassing clouds.9 mph82%29.86 "HgN/A
7:20 AM57 °FPassing clouds.8 mph82%29.83 "HgN/A
6:50 AM57 °FPassing clouds.8 mph82%29.83 "HgN/A
6:20 AM57 °FPassing clouds.9 mph77%29.83 "HgN/A
9:50 PM
Aug 29
59 °FPassing clouds.12 mph77%29.71 "HgN/A
8:20 PM61 °FPassing clouds.15 mph68%29.65 "HgN/A
7:50 PM61 °FPassing clouds.16 mph63%29.65 "HgN/A
7:20 PM63 °FPassing clouds.16 mph64%29.65 "HgN/A
6:50 PM63 °FPassing clouds.15 mph64%29.62 "HgN/A
6:20 PM64 °FPassing clouds.17 mph56%29.62 "HgN/A
5:50 PM66 °FPassing clouds.18 mph52%29.62 "HgN/A
5:20 PM66 °FPassing clouds.18 mph52%29.62 "HgN/A
4:50 PM66 °FPassing clouds.18 mph52%29.62 "HgN/A
4:20 PM66 °FPassing clouds.14 mph52%29.62 "HgN/A
Weather by CustomWeather, © 2014

See weather overviewHow to use our weather pages